Change the Weather History Date:

Monday, December 1, 2014

  Actual Average Record
Temperature  
Mean Temperature 45 °F 37 °F  
Max Temperature 62 °F 44 °F 70 °F (2006)
Min Temperature 28 °F 30 °F 8 °F (1929)
Degree Days  
Heating Degree Days 20 28  
Month to date heating degree days 20 28  
Since 1 July heating degree days 1258 1191  
Cooling Degree Days 0 0  
Month to date cooling degree days 0 0  
Year to date cooling degree days 700 736  
Moisture  
Dew Point 37 °F    
Average Humidity 80    
Maximum Humidity 96    
Minimum Humidity 63    
Precipitation  
Precipitation 0.23 in 0.09 in 0.92 in (1974)
Month to date precipitation 0.23 0.09  
Year to date precipitation 34.44 35.43  
Snow  
Snow 0.10 in 0.20 in 8.50 in (1974)
Month to date snowfall 0.1 0.2  
Since 1 July snowfall 3.2 2.6  
Snow Depth 0.00 in    
Sea Level Pressure  
Sea Level Pressure 30.32 in    
Wind  
Wind Speed 11 mph (NNW)    
Max Wind Speed 21 mph    
Max Gust Speed 25 mph    
Visibility 8 miles    
Events Rain , Snow    
T = Trace of Precipitation, MM = Missing Value Source: NWS Daily Summary

Daily Weather History Graph

Daily Weather History Graph

Search for Another Location

Airport or City:

Trip Planner

Search our weather history database for the weather conditions in past years. The results will help you decide how hot, cold, wet, or windy it might be!

Date:

Astronomy

Dec. 01, 2014 Rise Set
Actual Time 7:24 AM EST 4:54 PM EST
Civil Twilight 6:54 AM EST 5:25 PM EST
Nautical Twilight 6:20 AM EST 5:58 PM EST
Astronomical Twilight 5:47 AM EST 6:31 PM EST
Moon 2:00 PM EST (12/1) 1:58 AM EST (12/1)
Length of Visible Light 10h 30m
Length of Day
9h 29m
Waxing Gibbous, 75% of the Moon is Illuminated
Dec 1
Waxing Gibbous
Dec 6
Full
Dec 14
Last Quarter
Dec 21
New
Dec 28
First Quarter

Hourly Weather History & Observations

Time (EST) Temp. Windchill Dew Point Humidity Pressure Visibility Wind Dir Wind Speed Gust Speed Precip Events Conditions
12:51 AM 61.0 °F - 50.0 °F 67% 30.04 in 10.0 mi SW 16.1 mph 21.9 mph N/A   Mostly Cloudy
1:51 AM 60.1 °F - 50.0 °F 69% 30.04 in 10.0 mi SW 13.8 mph - N/A   Scattered Clouds
2:22 AM 60.1 °F - 50.0 °F 69% 30.04 in 10.0 mi SW 10.4 mph - N/A   Overcast
2:51 AM 55.9 °F - 54.0 °F 93% 30.09 in 3.0 mi West 11.5 mph - 0.03 in Rain Light Rain
3:51 AM 55.9 °F - 54.0 °F 93% 30.10 in 4.0 mi WSW 10.4 mph - 0.04 in Rain Light Rain
4:51 AM 55.0 °F - 54.0 °F 96% 30.11 in 10.0 mi West 5.8 mph - 0.04 in Rain Light Rain
5:00 AM 55.0 °F - 54.0 °F 96% 30.10 in 5.0 mi WSW 6.9 mph - 0.01 in Rain Light Rain
5:51 AM 52.0 °F - 50.0 °F 93% 30.14 in 5.0 mi NNW 17.3 mph - 0.04 in Rain Light Rain
6:35 AM 48.0 °F - 46.9 °F 96% 30.16 in 4.0 mi NNW 15.0 mph - 0.00 in   Overcast
6:51 AM 46.9 °F - 46.0 °F 97% 30.19 in 4.0 mi NNW 11.5 mph - 0.00 in   Overcast
7:38 AM 46.0 °F 41.0 °F 44.1 °F 93% 30.20 in 5.0 mi NNW 10.4 mph - N/A   Overcast
7:51 AM 44.1 °F 37.7 °F 42.1 °F 93% 30.24 in 5.0 mi North 12.7 mph - 0.00 in   Light Drizzle
8:51 AM 41.0 °F 34.7 °F 39.9 °F 96% 30.27 in 9.0 mi North 10.4 mph - 0.00 in   Overcast
9:51 AM 41.0 °F 33.1 °F 37.0 °F 86% 30.31 in 10.0 mi NNW 15.0 mph 20.7 mph N/A   Overcast
10:13 AM 39.9 °F 32.5 °F 36.0 °F 86% 30.29 in 10.0 mi NNW 12.7 mph - N/A   Overcast
10:37 AM 39.9 °F 32.1 °F 35.1 °F 83% 30.30 in 10.0 mi NNW 13.8 mph - N/A   Overcast
10:51 AM 39.9 °F 32.1 °F 35.1 °F 83% 30.35 in 10.0 mi NNW 13.8 mph - N/A   Overcast
11:34 AM 39.0 °F 30.3 °F 34.0 °F 82% 30.32 in 10.0 mi NNW 16.1 mph - N/A   Overcast
11:51 AM 39.0 °F 31.4 °F 34.0 °F 82% 30.34 in 10.0 mi North 12.7 mph - N/A   Overcast
12:51 PM 37.9 °F 30.0 °F 34.0 °F 86% 30.38 in 10.0 mi NNW 12.7 mph 24.2 mph 0.00 in Rain Light Rain
1:14 PM 37.0 °F 28.5 °F 33.1 °F 86% 30.34 in 6.0 mi North 13.8 mph - 0.01 in Rain , Snow Light Rain
1:41 PM 36.0 °F 29.6 °F 33.1 °F 89% 30.35 in 5.0 mi North 8.1 mph - 0.03 in Snow Light Snow
1:51 PM 35.1 °F 27.9 °F 33.1 °F 92% 30.39 in 4.0 mi NNW 9.2 mph - 0.04 in Snow Light Snow
2:27 PM 34.0 °F 28.8 °F 33.1 °F 96% 30.37 in 8.0 mi NW 5.8 mph - 0.04 in   Overcast
2:51 PM 36.0 °F 31.1 °F 33.1 °F 89% 30.42 in 10.0 mi NNW 5.8 mph - 0.04 in   Overcast
3:31 PM 36.0 °F 28.0 °F 30.0 °F 79% 30.40 in 10.0 mi NNW 11.5 mph - N/A   Overcast
3:51 PM 36.0 °F 28.5 °F 30.9 °F 82% 30.45 in 10.0 mi NNW 10.4 mph - N/A   Overcast
4:51 PM 35.1 °F 26.4 °F 27.0 °F 72% 30.48 in 10.0 mi NNW 12.7 mph - N/A   Overcast
5:51 PM 34.0 °F 26.0 °F 25.0 °F 70% 30.51 in 10.0 mi North 10.4 mph - N/A   Overcast
6:51 PM 33.1 °F 23.9 °F 24.1 °F 70% 30.54 in 10.0 mi North 12.7 mph 21.9 mph N/A   Overcast
7:51 PM 32.0 °F 23.0 °F 23.0 °F 69% 30.56 in 10.0 mi North 11.5 mph - N/A   Overcast
8:51 PM 30.9 °F 23.5 °F 21.9 °F 69% 30.58 in 10.0 mi NNE 8.1 mph - N/A   Overcast
9:51 PM 30.0 °F 22.4 °F 19.9 °F 66% 30.57 in 10.0 mi NNE 8.1 mph - N/A   Overcast
10:51 PM 28.9 °F 21.1 °F 18.0 °F 64% 30.58 in 10.0 mi North 8.1 mph - N/A   Mostly Cloudy
11:51 PM 28.0 °F 18.6 °F 18.0 °F 66% 30.58 in 10.0 mi North 10.4 mph - N/A   Mostly Cloudy